sat.trackr.live / text

‹ back to catalog

STARLINK-5748

NORAD 55604 · 2023-020AM

PAYLOAD ACTIVE UNKNOWN

§ Identity

Operator
Country
US
Launch date
2023-02-12
Launch site
AFETR
Launch vehicle
Mass (kg)
RCS (m²)

Purposes: comms

External: N2YO · Heavens-Above · Gunter

§ Orbital elements

Epoch: 2026-09-20T15:02:06.257184Z

Period
94.27 min
Inclination
43.0037°
Eccentricity
0.0001839
Mean motion
15.27576325 rev/d
Perigee alt
481.8 km
Apogee alt
484.3 km
Semi-major
6,861.2 km
B*
2.3259e-5
RAAN
318.5068°
Arg perigee
278.9977°
Mean anomaly
81.0666°
Rev number
19,902

§ Raw data

STARLINK-57481 55604U 23020AM  26263.62646131  .00000378  00000+0  23259-4 0  99972 55604  43.0037 318.5068 0001839 278.9977  81.0666 15.27576325199021

JSON: /api/v1/satellites/55604 · /tle

For live sub-satellite position, see the globe view (requires WebGL).

§ Visibility from observer

Set your observer location to see the next 7 days of passes ≥ 10°. The values pass through the URL so the page stays shareable.

No JS? Fill the form by hand. The geolocation button needs JavaScript.